Location: Anaheim Mobile Home Estates
(33.8153°N, 117.9967°W)
Time: 06:06:40
(UTC+00:00)

Cosmos 1892 - Pass Details

Date: 05 August 2024
Orbit: 440 x 457 km, 82.5° (Epoch: 14 September)

Event Time Altitude Azimuth Distance (km) Brightness Sun altitude
Rises 10:42:46 0° 47° (NE) 2,455 7.5 -26.0°
Reaches altitude 10° 12:16:21 10° 356° (N) 1,583 5.5 -10.4°
Maximum altitude 12:19:48 80° 83° (E) 458 2.5 -9.8°
Drops below altitude 10° 12:23:11 10° 171° (S) 1,556 4.9 -9.2°
Sets 12:25:13 0° 172° (S) 2,418 5.9 -8.8°
